DW2059 Weather Reports


time (UTC)temp
C
wind
direction
speed
KPH
gust
KPH
rain 1hr
cm
rain 24hr
cm
rain mn
cm
humidity
%
barometer
mb
20260507095057 12 360 0.0 3.2 0.00 0.00 0.00 85 1020.0
20260507093555 12 360 1.6 4.8 0.00 0.00 0.00 86 1020.2
20260507092054 12 360 1.6 4.8 0.00 0.00 0.00 85 1020.3
20260507090553 12 360 0.0 4.8 0.00 0.00 0.00 86 1020.4
20260507085052 12 360 1.6 4.8 0.00 0.00 0.00 86 1020.4
20260507083551 12 360 1.6 4.8 0.00 0.00 0.00 86 1020.6
20260507082051 13 360 0.0 4.8 0.00 0.00 0.00 86 1020.7
20260507080550 13 360 1.6 3.2 0.00 0.00 0.00 86 1020.7
20260507075048 13 360 1.6 3.2 0.00 0.00 0.00 86 1020.6
20260507073547 13 360 1.6 3.2 0.00 0.00 0.00 86 1020.7
20260507070545 13 360 0.0 3.2 0.00 0.00 0.00 86 1020.7
20260507065044 13 360 0.0 4.8 0.00 0.00 0.00 86 1020.8
20260507063543 13 360 1.6 3.2 0.00 0.00 0.00 86 1020.7
20260507062042 13 360 0.0 4.8 0.00 0.00 0.00 86 1020.7
20260507060541 13 360 1.6 4.8 0.00 0.00 0.00 86 1020.8
20260507055040 13 360 0.0 4.8 0.00 0.00 0.00 85 1020.7
20260507053539 13 360 0.0 6.4 0.00 0.00 0.00 85 1020.7
20260507052038 13 360 0.0 9.7 0.00 0.00 0.00 85 1020.8
20260507050537 13 360 4.8 8.0 0.00 0.00 0.00 85 1020.7
20260507043535 13 360 3.2 8.0 0.00 0.00 0.00 85 1020.8
20260507042034 13 360 1.6 8.0 0.00 0.00 0.00 84 1020.7
20260507040533 13 360 4.8 8.0 0.00 0.00 0.00 85 1020.6
20260507035032 13 360 3.2 8.0 0.00 0.00 0.00 84 1020.5
20260507033531 13 360 1.6 9.7 0.00 0.00 0.00 83 1020.4
20260507032030 13 360 4.8 8.0 0.00 0.00 0.00 83 1020.3
20260507030529 14 360 6.4 8.0 0.00 0.00 0.00 83 1020.2
20260507025028 14 360 3.2 9.7 0.00 0.00 0.00 82 1020.1
20260507023527 14 360 1.6 6.4 0.00 0.00 0.00 81 1020.1
20260507022026 14 360 4.8 8.0 0.00 0.00 0.00 81 1020.0
20260507020525 15 360 4.8 9.7 0.00 0.00 0.00 80 1020.0
20260507015023 15 360 3.2 14.5 0.00 0.00 0.00 80 1020.2
20260507013523 15 360 4.8 9.7 0.00 0.00 0.00 79 1020.3
20260507012022 15 360 1.6 8.0 0.00 0.00 0.00 79 1020.2
20260507010520 15 360 3.2 8.0 0.00 0.00 0.00 78 1020.2
20260507005019 15 360 3.2 9.7 0.00 0.00 0.00 78 1020.1
20260507003518 16 360 4.8 14.5 0.00 0.00 0.00 77 1020.1
20260506235015 16 360 3.2 14.5 0.00 0.00 0.00 75 1020.1
20260506232013 17 360 3.2 16.1 0.00 0.00 0.00 74 1020.1
20260506230512 17 31 6.4 9.7 0.00 0.00 0.00 73 1020.2
20260506225011 17 78 4.8 14.5 0.00 0.00 0.00 72 1020.4
20260506223510 18 5 6.4 9.7 0.00 0.00 0.00 71 1020.5
20260506222009 18 149 4.8 14.5 0.00 0.00 0.00 70 1020.6
20260506220508 19 44 8.0 11.3 0.00 0.00 0.00 69 1020.7
20260506213506 20 13 12.9 16.1 0.00 0.00 0.00 68 1020.9
20260506212005 20 113 1.6 16.1 0.00 0.00 0.00 67 1021.0
20260506210504 20 201 3.2 8.0 0.00 0.00 0.00 65 1020.9
20260506205003 21 77 4.8 19.3 0.00 0.00 0.00 64 1021.0
20260506203503 21 146 6.4 12.9 0.00 0.00 0.00 66 1021.0
20260506200500 21 19 6.4 14.5 0.00 0.00 0.00 65 1021.1
20260506194959 20 59 6.4 12.9 0.00 0.00 0.00 66 1021.4
20260506191957 20 124 1.6 12.9 0.00 0.00 0.00 66 1021.4
20260506190456 20 195 3.2 9.7 0.00 0.00 0.00 69 1021.5
20260506184955 19 74 1.6 11.3 0.00 0.00 0.00 69 1021.5
20260506181953 18 318 12.9 16.1 0.00 0.00 0.00 73 1021.7
20260506180452 17 39 1.6 9.7 0.00 0.00 0.00 76 1021.7
20260506173450 16 360 4.8 9.7 0.00 0.00 0.00 80 1021.8
20260506171949 16 360 1.6 9.7 0.00 0.00 0.00 81 1021.8
20260506170447 15 360 1.6 9.7 0.00 0.00 0.00 81 1021.8
20260506164947 15 360 0.0 0.0 0.00 0.00 0.00 82 1021.7
20260506163446 15 360 0.0 0.0 0.00 0.00 0.00 83 1021.8
20260506161945 14 360 0.0 0.0 0.00 0.00 0.00 84 1021.8
20260506160443 14 360 0.0 0.0 0.00 0.00 0.00 85 1021.8
20260506151940 14 360 0.0 0.0 0.00 0.00 0.00 87 1021.6
20260506150440 13 360 0.0 0.0 0.00 0.00 0.00 87 1021.6
20260506144938 13 360 0.0 0.0 0.00 0.00 0.00 87 1021.5
20260506141936 13 360 0.0 0.0 0.00 0.00 0.00 88 1021.4
20260506140435 13 360 0.0 0.0 0.00 0.00 0.00 88 1021.1
20260506133433 13 360 0.0 0.0 0.00 0.00 0.00 88 1020.9
20260506131932 13 360 0.0 0.0 0.00 0.00 0.00 88 1020.7
20260506130431 13 360 0.0 0.0 0.00 0.00 0.00 87 1020.6
20260506123429 13 360 0.0 0.0 0.00 0.00 0.00 87 1020.5
20260506121928 13 360 0.0 0.0 0.00 0.00 0.00 87 1020.3
20260506114926 13 360 0.0 0.0 0.00 0.00 0.00 87 1020.1
20260506113425 13 360 0.0 0.0 0.00 0.00 0.00 87 1020.2
20260506111924 13 360 0.0 0.0 0.00 0.00 0.00 87 1020.1
20260506104922 13 360 0.0 0.0 0.00 0.00 0.00 86 1019.9
20260506103421 13 360 0.0 0.0 0.00 0.00 0.00 86 1019.9
20260506101920 13 360 0.0 0.0 0.00 0.00 0.00 86 1019.9
20260506100419 13 360 0.0 0.0 0.00 0.00 0.00 86 1019.9